AEA2YP LIEE-LEMD

Flight info

Callsign AEA2YP
Flight time N/A
Altitude 35000
Route KOVAS DCT RAMEN DCT TEKSA DCT SODIO DCT USEPI DCT GOKMI DCT SUPUX DCT KUPIM DCT SUXER DCT RIPAL DCT MORSS DCT MHN DCT CDP DCT OLUTO DCT AKAMU DCT EPAMA DCT IXUPA DCT ARGOR DCT VLC N733 CLS/N0448F360 DCT WALLY/N0339F130 N733 PRADO
Aircraft B738/M-SDE2E3FGHIRWXY/LB1

Departure

Time 2026-04-29 10:27
Airport Cagliari Elmas Airport (LIEE)

Arrival

Time N/A
Airport Adolfo Suárez Madrid–Barajas Airport (LEMD)
Time Latitude Longitude Altitude Speed Heading
2026-04-29 10:25 39.26004 9.04711 21 ft 21 kts 318°
2026-04-29 10:25 39.26111 9.04582 21 ft 20 kts 304°
2026-04-29 10:25 39.26125 9.04435 21 ft 10 kts 254°
2026-04-29 10:26 39.26085 9.04373 21 ft 8 kts 217°
2026-04-29 10:26 39.26046 9.04387 21 ft 0 kts 133°
2026-04-29 10:26 39.26037 9.04400 21 ft 8 kts 134°
2026-04-29 10:26 39.25812 9.04659 21 ft 76 kts 139°
2026-04-29 10:27 39.24476 9.06207 84 ft 168 kts 138°
2026-04-29 10:27 39.23606 9.07215 628 ft 170 kts 139°
2026-04-29 10:27 39.22715 9.08215 1177 ft 174 kts 140°
2026-04-29 10:28 39.21775 9.09190 1746 ft 175 kts 141°
2026-04-29 10:28 39.20864 9.10236 2265 ft 179 kts 136°
2026-04-29 10:28 39.20001 9.11357 2855 ft 176 kts 135°
2026-04-29 10:28 39.19009 9.12293 3358 ft 178 kts 161°
2026-04-29 10:29 39.17789 9.12410 3768 ft 185 kts 193°
2026-04-29 10:29 39.16598 9.11645 4075 ft 199 kts 220°
2026-04-29 10:29 39.15609 9.10305 4357 ft 218 kts 228°
2026-04-29 10:29 39.14666 9.08699 4693 ft 235 kts 240°
2026-04-29 10:30 39.14148 9.06693 5341 ft 238 kts 264°
2026-04-29 10:30 39.14323 9.04582 5925 ft 244 kts 288°
2026-04-29 10:30 39.15115 9.02608 6321 ft 259 kts 307°
2026-04-29 10:30 39.16452 9.00991 6786 ft 269 kts 324°
2026-04-29 10:31 39.17990 8.99520 7231 ft 281 kts 320°
2026-04-29 10:31 39.19442 8.97852 7929 ft 282 kts 316°
2026-04-29 10:31 39.20865 8.96103 8586 ft 285 kts 315°
2026-04-29 10:31 39.22314 8.94389 9253 ft 287 kts 320°
2026-04-29 10:32 39.24043 8.93056 9872 ft 291 kts 342°
2026-04-29 10:32 39.26046 8.92637 10454 ft 296 kts 356°
2026-04-29 10:32 39.28164 8.92556 10766 ft 311 kts 359°
2026-04-29 10:32 39.30351 8.92507 11276 ft 319 kts 358°
2026-04-29 10:33 39.32571 8.92420 11894 ft 323 kts 357°
2026-04-29 10:33 39.34839 8.92293 12554 ft 326 kts 356°
2026-04-29 10:33 39.37087 8.92143 13203 ft 329 kts 356°
2026-04-29 10:33 39.39385 8.91978 13861 ft 332 kts 356°
2026-04-29 10:34 39.41713 8.91880 14512 ft 335 kts
2026-04-29 10:34 39.44006 8.92330 15128 ft 340 kts 18°
2026-04-29 10:34 39.46153 8.93603 15786 ft 342 kts 28°
2026-04-29 10:34 39.48243 8.95135 16392 ft 346 kts 30°
2026-04-29 10:35 39.50323 8.96714 16992 ft 350 kts 30°
2026-04-29 10:35 39.52450 8.98310 17592 ft 353 kts 29°
2026-04-29 10:35 39.54577 8.99877 18170 ft 357 kts 29°
2026-04-29 10:35 39.56731 9.01440 18736 ft 360 kts 28°
2026-04-29 10:36 39.58937 9.03012 19298 ft 363 kts 26°
2026-04-29 10:36 39.61289 9.04251 19823 ft 365 kts 15°
2026-04-29 10:36 39.63792 9.04864 20352 ft 367 kts
2026-04-29 10:36 39.66322 9.04821 20859 ft 369 kts 352°
2026-04-29 10:37 39.68823 9.04123 21352 ft 371 kts 341°
2026-04-29 10:37 39.71215 9.02767 21841 ft 372 kts 329°
2026-04-29 10:37 39.73363 9.00948 22324 ft 374 kts 323°
2026-04-29 10:37 39.75465 8.98904 22796 ft 376 kts 322°
2026-04-29 10:38 39.77549 8.96860 23255 ft 379 kts 322°
2026-04-29 10:38 39.79703 8.94824 23705 ft 382 kts 323°
2026-04-29 10:38 39.81872 8.92861 24156 ft 384 kts 324°
2026-04-29 10:38 39.84105 8.90912 24588 ft 387 kts 326°
2026-04-29 10:39 39.86356 8.88992 25002 ft 389 kts 326°
2026-04-29 10:39 39.88650 8.87061 25429 ft 392 kts 326°
2026-04-29 10:39 39.90954 8.85134 25837 ft 394 kts 326°
2026-04-29 10:39 39.93232 8.83233 26231 ft 396 kts 326°
2026-04-29 10:40 39.95583 8.81272 26608 ft 399 kts 326°
2026-04-29 10:40 39.97918 8.79323 26986 ft 401 kts 326°
2026-04-29 10:40 40.00293 8.77340 27356 ft 403 kts 326°
2026-04-29 10:40 40.02644 8.75372 27717 ft 405 kts 326°
2026-04-29 10:41 40.05008 8.73392 28065 ft 407 kts 326°
2026-04-29 10:41 40.07417 8.71372 28414 ft 409 kts 326°
2026-04-29 10:41 40.09813 8.69360 28747 ft 411 kts 326°
2026-04-29 10:41 40.12219 8.67338 29070 ft 413 kts 326°
2026-04-29 10:42 40.14656 8.65287 29388 ft 415 kts 326°
2026-04-29 10:42 40.17082 8.63245 29687 ft 418 kts 326°
2026-04-29 10:42 40.19519 8.61192 29979 ft 420 kts 326°
2026-04-29 10:42 40.22005 8.59095 30269 ft 422 kts 326°
2026-04-29 10:43 40.24479 8.57006 30549 ft 425 kts 326°
2026-04-29 10:43 40.26955 8.54914 30828 ft 427 kts 326°
2026-04-29 10:43 40.29476 8.52782 31122 ft 428 kts 326°
2026-04-29 10:43 40.31970 8.50671 31398 ft 430 kts 326°
2026-04-29 10:44 40.34475 8.48536 31674 ft 432 kts 325°
2026-04-29 10:44 40.36883 8.46178 31940 ft 433 kts 319°
2026-04-29 10:44 40.39093 8.43469 32198 ft 434 kts 313°
2026-04-29 10:44 40.41042 8.40463 32451 ft 435 kts 306°
2026-04-29 10:45 40.42718 8.37193 32706 ft 436 kts 300°
2026-04-29 10:45 40.44116 8.33649 32989 ft 436 kts 293°
2026-04-29 10:45 40.45194 8.29950 33236 ft 437 kts 287°
2026-04-29 10:45 40.45954 8.26080 33472 ft 439 kts 281°
2026-04-29 10:46 40.46376 8.22132 33705 ft 440 kts 274°
2026-04-29 10:46 40.46459 8.18126 33927 ft 442 kts 268°
2026-04-29 10:46 40.46198 8.14096 34144 ft 444 kts 262°
2026-04-29 10:46 40.45599 8.10162 34461 ft 442 kts 256°
2026-04-29 10:47 40.44768 8.06299 34801 ft 441 kts 254°
2026-04-29 10:47 40.43919 8.02407 35092 ft 440 kts 255°
2026-04-29 10:47 40.43157 7.98531 35368 ft 440 kts 256°
2026-04-29 10:47 40.42419 7.94708 35646 ft 439 kts 256°
2026-04-29 10:48 40.41705 7.90813 35899 ft 438 kts 257°
2026-04-29 10:48 40.41047 7.86916 36000 ft 440 kts 258°
2026-04-29 10:48 40.40437 7.82982 36001 ft 440 kts 259°
2026-04-29 10:49 40.39333 7.75137 36002 ft 438 kts 261°
2026-04-29 10:49 40.38302 7.67299 36001 ft 439 kts 261°
2026-04-29 10:50 40.37286 7.59420 36001 ft 438 kts 261°
2026-04-29 10:50 40.36274 7.51566 36001 ft 439 kts 261°
2026-04-29 10:51 40.35257 7.43719 36001 ft 438 kts 261°
2026-04-29 10:51 40.34226 7.35818 36001 ft 438 kts 261°
2026-04-29 10:52 40.33192 7.27951 36001 ft 439 kts 260°
2026-04-29 10:52 40.32157 7.20107 36001 ft 438 kts 260°
2026-04-29 10:53 40.31119 7.12280 36001 ft 438 kts 261°
2026-04-29 10:53 40.30069 7.04407 36001 ft 439 kts 261°
2026-04-29 10:54 40.29019 6.96581 36001 ft 439 kts 260°
2026-04-29 10:54 40.27958 6.88711 36001 ft 438 kts 260°
2026-04-29 10:55 40.26897 6.80883 36001 ft 438 kts 260°
2026-04-29 10:55 40.25835 6.73088 36001 ft 438 kts 260°
2026-04-29 10:56 40.24759 6.65232 36001 ft 438 kts 260°
2026-04-29 10:56 40.23687 6.57451 36001 ft 438 kts 260°
2026-04-29 10:57 40.22607 6.49651 36001 ft 438 kts 260°
2026-04-29 10:57 40.21516 6.41810 36001 ft 438 kts 260°
2026-04-29 10:58 40.20427 6.34018 36001 ft 438 kts 259°
2026-04-29 10:58 40.19349 6.26353 36001 ft 438 kts 259°
2026-04-29 10:59 40.18241 6.18510 36001 ft 438 kts 259°
2026-04-29 10:59 40.17135 6.10714 36001 ft 438 kts 259°
2026-04-29 11:00 40.16024 6.02934 36001 ft 439 kts 260°
2026-04-29 11:00 40.14906 5.95130 36001 ft 436 kts 259°
2026-04-29 11:01 40.13786 5.87361 36001 ft 439 kts 259°
2026-04-29 11:01 40.12666 5.79534 36000 ft 438 kts 259°
2026-04-29 11:02 40.11566 5.71725 36001 ft 438 kts 259°
2026-04-29 11:02 40.10472 5.63967 36001 ft 438 kts 259°
2026-04-29 11:03 40.09364 5.56160 36001 ft 438 kts 259°
2026-04-29 11:03 40.08248 5.48353 36001 ft 438 kts 259°
2026-04-29 11:04 40.07132 5.40589 36001 ft 438 kts 259°
2026-04-29 11:04 40.06001 5.32768 36001 ft 438 kts 259°
2026-04-29 11:05 40.04874 5.25008 36000 ft 438 kts 259°
2026-04-29 11:05 40.03733 5.17199 36001 ft 438 kts 259°
2026-04-29 11:06 40.02598 5.09469 36000 ft 437 kts 259°
2026-04-29 11:06 40.01445 5.01647 36000 ft 437 kts 259°
2026-04-29 11:07 40.00297 4.93902 36001 ft 438 kts 259°
2026-04-29 11:07 39.99135 4.86101 36001 ft 438 kts 259°
2026-04-29 11:08 39.97977 4.78361 36001 ft 439 kts 259°
2026-04-29 11:08 39.96632 4.70606 36001 ft 438 kts 256°
2026-04-29 11:09 39.95042 4.62996 36000 ft 439 kts 255°
2026-04-29 11:09 39.93401 4.55331 36000 ft 439 kts 255°
2026-04-29 11:10 39.91781 4.47666 36000 ft 439 kts 255°
2026-04-29 11:10 39.90185 4.40045 36000 ft 439 kts 255°
2026-04-29 11:11 39.88588 4.32381 36000 ft 439 kts 255°
2026-04-29 11:11 39.86995 4.24744 36000 ft 439 kts 255°
2026-04-29 11:12 39.85459 4.17387 36000 ft 439 kts 255°
2026-04-29 11:12 39.83860 4.09743 36000 ft 438 kts 255°
2026-04-29 11:13 39.82261 4.02117 36000 ft 438 kts 255°
2026-04-29 11:13 39.80653 3.94480 36001 ft 438 kts 255°
2026-04-29 11:14 39.79045 3.86872 36001 ft 438 kts 255°
2026-04-29 11:14 39.77430 3.79259 36001 ft 439 kts 255°
2026-04-29 11:15 39.75805 3.71629 36001 ft 439 kts 255°
2026-04-29 11:15 39.74173 3.63986 36001 ft 439 kts 255°
2026-04-29 11:16 39.72543 3.56386 36001 ft 439 kts 255°
2026-04-29 11:16 39.70908 3.48773 36001 ft 439 kts 255°
2026-04-29 11:17 39.69705 3.41009 36001 ft 439 kts 263°
2026-04-29 11:17 39.69226 3.33285 36001 ft 439 kts 266°
2026-04-29 11:18 39.68955 3.25290 36000 ft 439 kts 268°
2026-04-29 11:18 39.68718 3.17894 36000 ft 439 kts 268°
2026-04-29 11:19 39.68447 3.10150 36000 ft 438 kts 267°
2026-04-29 11:19 39.68147 3.02272 36000 ft 438 kts 267°
2026-04-29 11:20 39.67831 2.94402 36000 ft 438 kts 267°
2026-04-29 11:20 39.67505 2.86554 36000 ft 438 kts 267°
2026-04-29 11:21 39.67170 2.78654 36000 ft 438 kts 267°
2026-04-29 11:21 39.66829 2.70763 36000 ft 438 kts 267°
2026-04-29 11:22 39.66483 2.62880 36000 ft 438 kts 267°
2026-04-29 11:22 39.66132 2.55024 36001 ft 438 kts 267°
2026-04-29 11:23 39.65773 2.47132 36001 ft 438 kts 267°
2026-04-29 11:23 39.65412 2.39295 36001 ft 438 kts 267°
2026-04-29 11:24 39.65047 2.31414 36001 ft 437 kts 266°
2026-04-29 11:24 39.64678 2.23559 36001 ft 437 kts 266°
2026-04-29 11:25 39.64304 2.15725 36001 ft 437 kts 266°
2026-04-29 11:25 39.63924 2.07859 36001 ft 437 kts 266°
2026-04-29 11:26 39.63343 1.96075 36001 ft 437 kts 266°
2026-04-29 11:26 39.62950 1.88235 36001 ft 437 kts 266°
2026-04-29 11:27 39.62552 1.80385 36001 ft 437 kts 266°
2026-04-29 11:27 39.62148 1.72547 36001 ft 437 kts 266°
2026-04-29 11:28 39.61738 1.64688 36001 ft 438 kts 266°
2026-04-29 11:28 39.61324 1.56839 36001 ft 438 kts 266°
2026-04-29 11:29 39.60904 1.49008 36001 ft 438 kts 266°
2026-04-29 11:29 39.60478 1.41147 36001 ft 438 kts 266°
2026-04-29 11:30 39.60048 1.33311 36001 ft 438 kts 265°
2026-04-29 11:30 39.59615 1.25543 36001 ft 438 kts 265°
2026-04-29 11:31 39.59182 1.17866 36001 ft 438 kts 265°
2026-04-29 11:31 39.58732 1.09993 36001 ft 438 kts 265°
2026-04-29 11:32 39.58280 1.02165 36001 ft 438 kts 265°
2026-04-29 11:32 39.57820 0.94299 36001 ft 437 kts 265°
2026-04-29 11:33 39.57357 0.86472 36001 ft 437 kts 265°
2026-04-29 11:33 39.56886 0.78572 36001 ft 437 kts 266°
2026-04-29 11:34 39.56414 0.70760 36000 ft 437 kts 266°
2026-04-29 11:34 39.55933 0.62901 36001 ft 437 kts 266°
2026-04-29 11:35 39.55448 0.55064 36001 ft 437 kts 266°
2026-04-29 11:35 39.54960 0.47244 36001 ft 437 kts 266°
2026-04-29 11:36 39.54465 0.39403 36001 ft 438 kts 266°
2026-04-29 11:36 39.53971 0.31659 36000 ft 437 kts 265°
2026-04-29 11:37 39.53471 0.23907 36001 ft 438 kts 265°
2026-04-29 11:37 39.52959 0.16051 36001 ft 438 kts 265°
2026-04-29 11:38 39.52442 0.08205 36001 ft 439 kts 265°
2026-04-29 11:38 39.51919 0.00357 36001 ft 439 kts 265°
2026-04-29 11:39 39.51389 -0.07528 36001 ft 438 kts 265°
2026-04-29 11:39 39.50859 -0.15333 36001 ft 438 kts 265°
2026-04-29 11:40 39.50319 -0.23193 36001 ft 437 kts 265°
2026-04-29 11:40 39.49776 -0.31033 36001 ft 437 kts 265°
2026-04-29 11:41 39.49230 -0.38830 36000 ft 437 kts 265°
2026-04-29 11:41 39.49210 -0.46660 35998 ft 436 kts 279°
2026-04-29 11:42 39.49922 -0.50455 36002 ft 437 kts 290°
2026-04-29 11:42 39.51117 -0.54084 36003 ft 437 kts 296°
2026-04-29 11:42 39.53998 -0.60976 36000 ft 437 kts 300°
2026-04-29 11:43 39.57041 -0.67734 36000 ft 438 kts 300°
2026-04-29 11:43 39.60096 -0.74511 36000 ft 438 kts 299°
2026-04-29 11:44 39.63165 -0.81397 36000 ft 439 kts 299°
2026-04-29 11:44 39.66205 -0.88287 36000 ft 440 kts 298°
2026-04-29 11:45 39.69245 -0.95218 36000 ft 441 kts 298°
2026-04-29 11:45 39.72263 -1.02130 36000 ft 441 kts 298°
2026-04-29 11:46 39.75274 -1.09057 36000 ft 440 kts 298°
2026-04-29 11:46 39.78283 -1.15972 36000 ft 440 kts 298°
2026-04-29 11:47 39.81301 -1.22894 36000 ft 440 kts 298°
2026-04-29 11:47 39.84311 -1.29830 36000 ft 440 kts 298°
2026-04-29 11:48 39.87305 -1.36755 36000 ft 439 kts 298°
2026-04-29 11:48 39.90281 -1.43655 36000 ft 439 kts 298°
2026-04-29 11:49 39.93252 -1.50562 35909 ft 435 kts 299°
2026-04-29 11:49 39.94730 -1.54004 35582 ft 429 kts 299°
2026-04-29 11:49 39.96178 -1.57375 35067 ft 427 kts 299°
2026-04-29 11:50 39.97617 -1.60733 34438 ft 427 kts 299°
2026-04-29 11:50 39.99057 -1.64097 34011 ft 421 kts 299°
2026-04-29 11:50 40.00428 -1.67302 33568 ft 418 kts 298°
2026-04-29 11:50 40.01832 -1.70588 33101 ft 414 kts 298°
2026-04-29 11:51 40.03201 -1.73795 32643 ft 411 kts 298°
2026-04-29 11:51 40.04423 -1.76663 32233 ft 408 kts 298°
2026-04-29 11:51 40.05851 -1.80017 31749 ft 404 kts 298°
2026-04-29 11:51 40.06895 -1.82472 31392 ft 401 kts 298°
2026-04-29 11:52 40.07474 -1.83833 31195 ft 400 kts 298°
2026-04-29 11:52 40.08739 -1.86809 30766 ft 397 kts 298°
2026-04-29 11:52 40.10022 -1.89834 30323 ft 394 kts 298°
2026-04-29 11:52 40.11122 -1.92428 29942 ft 391 kts 298°
2026-04-29 11:53 40.11777 -1.93971 29707 ft 390 kts 299°
2026-04-29 11:53 40.13083 -1.97052 29261 ft 387 kts 299°
2026-04-29 11:53 40.14373 -2.00099 28815 ft 384 kts 299°
2026-04-29 11:53 40.15673 -2.03175 28356 ft 381 kts 299°
2026-04-29 11:54 40.16941 -2.06174 27908 ft 379 kts 299°
2026-04-29 11:54 40.18203 -2.09158 27456 ft 376 kts 299°
2026-04-29 11:54 40.19474 -2.12169 27007 ft 374 kts 299°
2026-04-29 11:54 40.20722 -2.15125 26558 ft 371 kts 299°
2026-04-29 11:55 40.21963 -2.18069 26110 ft 369 kts 299°
2026-04-29 11:55 40.23188 -2.20976 25668 ft 366 kts 299°
2026-04-29 11:55 40.24407 -2.23872 25227 ft 364 kts 299°
2026-04-29 11:55 40.25631 -2.26784 24779 ft 361 kts 299°
2026-04-29 11:56 40.26826 -2.29630 24339 ft 359 kts 299°
2026-04-29 11:56 40.27800 -2.31950 23980 ft 357 kts 299°
2026-04-29 11:56 40.28997 -2.34806 23538 ft 354 kts 299°
2026-04-29 11:56 40.30170 -2.37605 23102 ft 352 kts 299°
2026-04-29 11:57 40.31342 -2.40406 22667 ft 350 kts 299°
2026-04-29 11:57 40.32278 -2.42645 22316 ft 348 kts 299°
2026-04-29 11:57 40.33439 -2.45422 21879 ft 345 kts 299°
2026-04-29 11:57 40.34581 -2.48158 21449 ft 343 kts 299°
2026-04-29 11:58 40.35734 -2.50895 21019 ft 341 kts 300°
2026-04-29 11:58 40.37014 -2.53510 20707 ft 334 kts 308°
2026-04-29 11:58 40.38537 -2.55702 20513 ft 325 kts 318°
2026-04-29 11:58 40.40282 -2.57590 20051 ft 325 kts 323°
2026-04-29 11:59 40.42110 -2.59337 19644 ft 323 kts 325°
2026-04-29 11:59 40.43919 -2.61006 19371 ft 317 kts 325°
2026-04-29 11:59 40.45694 -2.62644 19255 ft 307 kts 325°
2026-04-29 11:59 40.47450 -2.64279 19124 ft 319 kts 325°
2026-04-29 12:00 40.49280 -2.66000 18866 ft 332 kts 324°
2026-04-29 12:00 40.51173 -2.67793 18612 ft 328 kts 324°
2026-04-29 12:00 40.53019 -2.69552 18374 ft 320 kts 323°
2026-04-29 12:00 40.54786 -2.71243 18148 ft 313 kts 323°
2026-04-29 12:01 40.56529 -2.72914 17922 ft 305 kts 323°
2026-04-29 12:01 40.58234 -2.74550 17710 ft 307 kts 323°
2026-04-29 12:01 40.60015 -2.76261 17476 ft 324 kts 323°
2026-04-29 12:01 40.61850 -2.78023 17228 ft 322 kts 323°
2026-04-29 12:02 40.63623 -2.79731 16997 ft 314 kts 323°
2026-04-29 12:02 40.64588 -2.80733 16868 ft 310 kts 319°
2026-04-29 12:02 40.66083 -2.82709 16626 ft 303 kts 308°
2026-04-29 12:02 40.67294 -2.84956 16214 ft 302 kts 302°
2026-04-29 12:03 40.68375 -2.87320 15838 ft 298 kts 300°
2026-04-29 12:03 40.69411 -2.89683 15482 ft 295 kts 300°
2026-04-29 12:03 40.70439 -2.92006 15118 ft 294 kts 300°
2026-04-29 12:03 40.71473 -2.94295 14761 ft 292 kts 301°
2026-04-29 12:04 40.72516 -2.96577 14405 ft 290 kts 301°
2026-04-29 12:04 40.73561 -2.98848 14049 ft 288 kts 301°
2026-04-29 12:04 40.74527 -3.00944 13722 ft 286 kts 301°
2026-04-29 12:04 40.75365 -3.02767 13437 ft 285 kts 301°
2026-04-29 12:05 40.76390 -3.04995 13088 ft 283 kts 301°
2026-04-29 12:05 40.77409 -3.07214 12801 ft 279 kts 301°
2026-04-29 12:05 40.78400 -3.09375 12481 ft 276 kts 301°
2026-04-29 12:05 40.79387 -3.11529 12147 ft 275 kts 301°
2026-04-29 12:06 40.80374 -3.13686 11809 ft 273 kts 301°
2026-04-29 12:06 40.81359 -3.15836 11475 ft 271 kts 301°
2026-04-29 12:06 40.82329 -3.17957 11142 ft 270 kts 301°
2026-04-29 12:06 40.83291 -3.20062 10817 ft 268 kts 301°
2026-04-29 12:07 40.84247 -3.22155 10489 ft 267 kts 301°
2026-04-29 12:07 40.85203 -3.24249 10161 ft 265 kts 301°
2026-04-29 12:07 40.86150 -3.26324 9841 ft 263 kts 301°
2026-04-29 12:07 40.87095 -3.28392 9520 ft 262 kts 301°
2026-04-29 12:08 40.88040 -3.30461 9201 ft 260 kts 301°
2026-04-29 12:08 40.88972 -3.32502 8884 ft 259 kts 301°
2026-04-29 12:08 40.89886 -3.34505 8575 ft 257 kts 301°
2026-04-29 12:08 40.90817 -3.36551 8259 ft 255 kts 300°
2026-04-29 12:09 40.91571 -3.38630 8072 ft 249 kts 288°
2026-04-29 12:09 40.91987 -3.40831 8087 ft 248 kts 281°
2026-04-29 12:09 40.92297 -3.43074 8078 ft 249 kts 280°
2026-04-29 12:09 40.92501 -3.45388 7717 ft 257 kts 269°
2026-04-29 12:10 40.92314 -3.47731 7314 ft 258 kts 260°
2026-04-29 12:10 40.91861 -3.50018 6941 ft 258 kts 246°
2026-04-29 12:10 40.90857 -3.51949 6591 ft 257 kts 222°
2026-04-29 12:10 40.89335 -3.53224 6225 ft 257 kts 205°
2026-04-29 12:11 40.87736 -3.54120 6106 ft 247 kts 202°
2026-04-29 12:11 40.86119 -3.54726 6069 ft 234 kts 191°
2026-04-29 12:11 40.84531 -3.55077 6074 ft 232 kts 189°
2026-04-29 12:11 40.82908 -3.55429 6076 ft 234 kts 190°
2026-04-29 12:12 40.81320 -3.55783 6076 ft 233 kts 190°
2026-04-29 12:12 40.79706 -3.56082 6075 ft 233 kts 184°
2026-04-29 12:12 40.78073 -3.56109 6077 ft 233 kts 179°
2026-04-29 12:12 40.76450 -3.56058 6077 ft 233 kts 179°
2026-04-29 12:13 40.74811 -3.56037 6065 ft 234 kts 180°
2026-04-29 12:13 40.73180 -3.56033 5960 ft 233 kts 180°
2026-04-29 12:13 40.71556 -3.56028 5756 ft 232 kts 180°
2026-04-29 12:13 40.69951 -3.56020 5375 ft 234 kts 180°
2026-04-29 12:14 40.68318 -3.56011 5072 ft 231 kts 180°
2026-04-29 12:14 40.66709 -3.56004 4715 ft 229 kts 180°
2026-04-29 12:14 40.65130 -3.55996 4405 ft 225 kts 180°
2026-04-29 12:14 40.63614 -3.55989 4130 ft 209 kts 180°
2026-04-29 12:15 40.62666 -3.55984 3894 ft 200 kts 180°